Daleville, AL

12:38 AM CST on February 23, 2017 (GMT -0600)
Cairns Army Air Field

Weather History for KOZR - March, 2015

Change the Weather History Date:

Wednesday, March 18, 2015

  Actual Average Record
Temperature  
Mean Temperature 69 °F -  
Max Temperature 82 °F 67 °F 86 °F (2012)
Min Temperature 57 °F 45 °F 35 °F (2007)
Cooling Degree Days 4    
Growing Degree Days 19 (Base 50)    
Moisture  
Dew Point 53 °F    
Average Humidity 54    
Maximum Humidity 80    
Minimum Humidity 35    
Precipitation  
Precipitation 0.00 in - - ()
Sea Level Pressure  
Sea Level Pressure 30.02 in    
Wind  
Wind Speed 5 mph (East)    
Max Wind Speed 10 mph    
Max Gust Speed -    
Visibility 10 miles    
Events      
Averages and records for this station are not official NWS values.
T = Trace of Precipitation, MM = Missing Value Source: NWS Daily Summary

Daily Weather History Graph

Daily Weather History Graph

Search for Another Location

Airport or City:

Trip Planner

Search our weather history database for the weather conditions in past years. The results will help you decide how hot, cold, wet, or windy it might be!

Date:

Astronomy

Mar. 18, 2015 Rise Set
Actual Time 6:49 AM CDT 6:52 PM CDT
Civil Twilight 6:25 AM CDT 7:17 PM CDT
Nautical Twilight 5:57 AM CDT 7:45 PM CDT
Astronomical Twilight 5:28 AM CDT 8:13 PM CDT
Moon 5:24 AM CDT (3/18) 5:13 PM CDT (3/18)
Length of Visible Light 12h 51m
Length of Day
12h 03m
Waning Crescent, 4% of the Moon is Illuminated
Mar 18
Waning Crescent
Mar 20
New
Mar 27
First Quarter
Apr 4
Full
Apr 11
Last Quarter

Hourly Weather History & Observations

Time (CDT) Temp. Heat Index Dew Point Humidity Pressure Visibility Wind Dir Wind Speed Gust Speed Precip Events Conditions
12:58 AM 66.0 °F - 52.0 °F 60% 30.00 in 8.0 mi NW 5.8 mph - N/A   Clear
1:58 AM 64.6 °F - 52.0 °F 64% 29.99 in 10.0 mi WNW 3.5 mph - N/A   Clear
3:58 AM 62.1 °F - 51.4 °F 68% 29.99 in 10.0 mi North 4.6 mph - N/A   Clear
4:58 AM 58.3 °F - 51.4 °F 78% 30.00 in 10.0 mi NNW 2.3 mph - N/A   Clear
5:58 AM 58.3 °F - 51.3 °F 77% 30.02 in 10.0 mi ENE 1.2 mph - N/A   Clear
6:58 AM 57.0 °F - 50.9 °F 80% 30.04 in 10.0 mi NE 4.6 mph - N/A   Clear
7:58 AM 62.2 °F - 53.2 °F 72% 30.06 in 10.0 mi NNE 6.9 mph - N/A   Clear
8:58 AM 64.8 °F - 53.2 °F 66% 30.06 in 10.0 mi ENE 9.2 mph - N/A   Clear
9:58 AM 71.2 °F - 52.9 °F 52% 30.06 in 10.0 mi ENE 10.4 mph - N/A   Clear
10:58 AM 75.2 °F - 52.2 °F 44% 30.07 in 10.0 mi Variable 5.8 mph - N/A   Clear
11:58 AM 77.0 °F - 52.0 °F 42% 30.05 in 10.0 mi Variable 4.6 mph - N/A   Clear
12:58 PM 79.0 °F - 52.5 °F 40% 30.03 in 10.0 mi ESE 4.6 mph - N/A   Partly Cloudy
1:58 PM 79.7 °F - 52.5 °F 39% 30.01 in 10.0 mi SE 8.1 mph - N/A   Clear
2:58 PM 81.5 °F 80.8 °F 53.2 °F 38% 29.99 in 10.0 mi Variable 5.8 mph - N/A   Partly Cloudy
3:58 PM 81.9 °F - 52.3 °F 36% 29.98 in 10.0 mi Variable 1.2 mph - N/A   Clear
4:58 PM 81.9 °F - 51.8 °F 35% 29.97 in 10.0 mi East 5.8 mph - N/A   Clear
5:58 PM 79.3 °F - 52.3 °F 39% 29.99 in 10.0 mi SE 5.8 mph - N/A   Partly Cloudy
6:58 PM 77.0 °F - 52.7 °F 43% 29.99 in 10.0 mi SE 3.5 mph - N/A   Scattered Clouds
7:58 PM 74.1 °F - 54.0 °F 49% 29.99 in 10.0 mi ESE 4.6 mph - N/A   Mostly Cloudy
8:58 PM 72.3 °F - 54.0 °F 52% 30.01 in 10.0 mi South 5.8 mph - N/A   Mostly Cloudy
9:58 PM 70.7 °F - 55.2 °F 58% 30.03 in 10.0 mi SSE 4.6 mph - N/A   Overcast
10:58 PM 69.4 °F - 55.0 °F 60% 30.02 in 10.0 mi SSE 5.8 mph - N/A   Mostly Cloudy
11:58 PM 68.7 °F - 54.7 °F 61% 30.00 in 10.0 mi SE 4.6 mph - N/A   Mostly Cloudy